| time (UTC) | temp F | wind direction | speed MPH | gust MPH | rain 1hr in | rain 24hr in | rain mn in | humidity % | barometer mb |
| 20260507155559 | 90 | 112 | 5.0 | 13.0 | 0.00 | 0.00 | 0.00 | 61 | 1014.7 |
| 20260507155500 | 90 | 142 | 5.0 | 13.0 | 0.00 | 0.00 | 0.00 | 61 | 1015.0 |
| 20260507155059 | 90 | 169 | 4.0 | 13.0 | 0.00 | 0.00 | 0.00 | 59 | 1014.8 |
| 20260507154601 | 91 | 163 | 4.0 | 12.0 | 0.00 | 0.00 | 0.00 | 60 | 1014.8 |
| 20260507154100 | 90 | 144 | 5.0 | 12.0 | 0.00 | 0.00 | 0.00 | 60 | 1014.9 |
| 20260507154001 | 90 | 167 | 9.0 | 12.0 | 0.00 | 0.00 | 0.00 | 61 | 1015.1 |
| 20260507153559 | 89 | 105 | 3.0 | 12.0 | 0.00 | 0.00 | 0.00 | 62 | 1014.9 |
| 20260507153502 | 89 | 135 | 9.0 | 12.0 | 0.00 | 0.00 | 0.00 | 62 | 1015.1 |
| 20260507153059 | 89 | 130 | 7.0 | 12.0 | 0.00 | 0.00 | 0.00 | 61 | 1014.9 |
| 20260507152602 | 89 | 93 | 4.0 | 13.0 | 0.00 | 0.00 | 0.00 | 61 | 1014.9 |
| 20260507152500 | 89 | 128 | 2.0 | 13.0 | 0.00 | 0.00 | 0.00 | 61 | 1015.1 |
| 20260507152100 | 88 | 113 | 7.0 | 13.0 | 0.00 | 0.00 | 0.00 | 62 | 1014.9 |
| 20260507151559 | 89 | 111 | 4.0 | 10.0 | 0.00 | 0.00 | 0.00 | 62 | 1015.0 |
| 20260507151100 | 89 | 36 | 2.0 | 13.0 | 0.00 | 0.00 | 0.00 | 62 | 1015.0 |
| 20260507151002 | 89 | 94 | 2.0 | 13.0 | 0.00 | 0.00 | 0.00 | 62 | 1015.3 |
| 20260507150600 | 89 | 94 | 3.0 | 13.0 | 0.00 | 0.00 | 0.00 | 60 | 1015.1 |
| 20260507150501 | 89 | 162 | 4.0 | 13.0 | 0.00 | 0.00 | 0.00 | 61 | 1015.3 |
| 20260507150100 | 89 | 107 | 8.0 | 12.0 | 0.00 | 0.00 | 0.00 | 60 | 1015.0 |
| 20260507145601 | 88 | 97 | 3.0 | 11.0 | 0.00 | 0.00 | 0.00 | 63 | 1015.0 |
| 20260507145500 | 88 | 61 | 2.0 | 11.0 | 0.00 | 0.00 | 0.00 | 62 | 1015.3 |
| 20260507145159 | 88 | 166 | 4.0 | 11.0 | 0.00 | 0.00 | 0.00 | 62 | 1015.0 |
| 20260507145002 | 88 | 115 | 6.0 | 10.0 | 0.00 | 0.00 | 0.00 | 62 | 1015.3 |
| 20260507144602 | 88 | 135 | 5.0 | 13.0 | 0.00 | 0.00 | 0.00 | 61 | 1015.1 |
| 20260507144100 | 88 | 92 | 6.0 | 13.0 | 0.00 | 0.00 | 0.00 | 61 | 1015.1 |
| 20260507144000 | 88 | 76 | 5.0 | 10.0 | 0.00 | 0.00 | 0.00 | 62 | 1015.4 |
| 20260507143559 | 88 | 108 | 5.0 | 12.0 | 0.00 | 0.00 | 0.00 | 62 | 1015.2 |
| 20260507143501 | 88 | 133 | 8.0 | 12.0 | 0.00 | 0.00 | 0.00 | 61 | 1015.5 |
| 20260507143119 | 88 | 162 | 3.0 | 12.0 | 0.00 | 0.00 | 0.00 | 63 | 1015.2 |
| 20260507142600 | 88 | 130 | 5.0 | 10.0 | 0.00 | 0.00 | 0.00 | 62 | 1015.3 |
| 20260507142501 | 88 | 115 | 6.0 | 10.0 | 0.00 | 0.00 | 0.00 | 62 | 1015.6 |
| 20260507142159 | 88 | 86 | 3.0 | 10.0 | 0.00 | 0.00 | 0.00 | 62 | 1015.3 |
| 20260507142000 | 88 | 116 | 3.0 | 10.0 | 0.00 | 0.00 | 0.00 | 62 | 1015.6 |
| 20260507141605 | 89 | 138 | 5.0 | 12.0 | 0.00 | 0.00 | 0.00 | 62 | 1015.3 |
| 20260507141059 | 88 | 107 | 6.0 | 12.0 | 0.00 | 0.00 | 0.00 | 65 | 1015.3 |
| 20260507140502 | 88 | 65 | 4.0 | 11.0 | 0.00 | 0.00 | 0.00 | 65 | 1015.5 |
| 20260507140100 | 87 | 348 | 5.0 | 11.0 | 0.00 | 0.00 | 0.00 | 66 | 1015.3 |
| 20260507135558 | 87 | 124 | 4.0 | 10.0 | 0.00 | 0.00 | 0.00 | 65 | 1015.3 |
| 20260507135502 | 87 | 107 | 4.0 | 11.0 | 0.00 | 0.00 | 0.00 | 65 | 1015.5 |
| 20260507135159 | 87 | 117 | 3.0 | 11.0 | 0.00 | 0.00 | 0.00 | 64 | 1015.2 |
| 20260507135001 | 88 | 127 | 8.0 | 11.0 | 0.00 | 0.00 | 0.00 | 63 | 1015.6 |
| 20260507134600 | 87 | 102 | 3.0 | 11.0 | 0.00 | 0.00 | 0.00 | 64 | 1015.3 |
| 20260507134059 | 86 | 111 | 5.0 | 11.0 | 0.00 | 0.00 | 0.00 | 66 | 1015.2 |
| 20260507134000 | 86 | 90 | 9.0 | 13.0 | 0.00 | 0.00 | 0.00 | 66 | 1015.5 |
| 20260507133600 | 86 | 32 | 5.0 | 13.0 | 0.00 | 0.00 | 0.00 | 66 | 1015.3 |
| 20260507133500 | 86 | 59 | 4.0 | 13.0 | 0.00 | 0.00 | 0.00 | 66 | 1015.5 |
| 20260507133100 | 86 | 122 | 6.0 | 13.0 | 0.00 | 0.00 | 0.00 | 65 | 1015.2 |
| 20260507132559 | 87 | 129 | 4.0 | 12.0 | 0.00 | 0.00 | 0.00 | 66 | 1015.1 |
| 20260507132101 | 86 | 111 | 5.0 | 12.0 | 0.00 | 0.00 | 0.00 | 66 | 1015.2 |
| 20260507132000 | 86 | 128 | 4.0 | 12.0 | 0.00 | 0.00 | 0.00 | 66 | 1015.4 |
| 20260507131606 | 86 | 124 | 5.0 | 11.0 | 0.00 | 0.00 | 0.00 | 65 | 1015.1 |
| 20260507131103 | 85 | 80 | 4.0 | 10.0 | 0.00 | 0.00 | 0.00 | 68 | 1015.1 |
| 20260507131002 | 85 | 120 | 8.0 | 10.0 | 0.00 | 0.00 | 0.00 | 67 | 1015.4 |
| 20260507130600 | 85 | 105 | 5.0 | 10.0 | 0.00 | 0.00 | 0.00 | 68 | 1015.2 |
| 20260507130501 | 85 | 91 | 4.0 | 10.0 | 0.00 | 0.00 | 0.00 | 68 | 1015.4 |
| 20260507130058 | 85 | 97 | 2.0 | 11.0 | 0.00 | 0.00 | 0.00 | 69 | 1015.1 |
| 20260507125558 | 85 | 108 | 5.0 | 11.0 | 0.00 | 0.00 | 0.00 | 68 | 1015.0 |
| 20260507125500 | 85 | 82 | 5.0 | 10.0 | 0.00 | 0.00 | 0.00 | 68 | 1015.3 |
| 20260507125157 | 85 | 88 | 3.0 | 10.0 | 0.00 | 0.00 | 0.00 | 70 | 1015.0 |
| 20260507124605 | 84 | 64 | 4.0 | 11.0 | 0.00 | 0.00 | 0.00 | 71 | 1015.1 |
| 20260507124058 | 84 | 118 | 4.0 | 11.0 | 0.00 | 0.00 | 0.00 | 70 | 1015.0 |
| 20260507124001 | 84 | 117 | 2.0 | 11.0 | 0.00 | 0.00 | 0.00 | 71 | 1015.3 |
| 20260507123659 | 84 | 124 | 5.0 | 10.0 | 0.00 | 0.00 | 0.00 | 71 | 1015.0 |
| 20260507123501 | 84 | 109 | 6.0 | 10.0 | 0.00 | 0.00 | 0.00 | 71 | 1015.2 |
| 20260507123057 | 84 | 95 | 6.0 | 10.0 | 0.00 | 0.00 | 0.00 | 71 | 1014.9 |
| 20260507122558 | 84 | 81 | 6.0 | 11.0 | 0.00 | 0.00 | 0.00 | 72 | 1014.8 |
| 20260507122058 | 83 | 108 | 6.0 | 11.0 | 0.00 | 0.00 | 0.00 | 72 | 1014.8 |
| 20260507122000 | 83 | 64 | 6.0 | 11.0 | 0.00 | 0.00 | 0.00 | 72 | 1015.0 |
| 20260507121558 | 83 | 127 | 6.0 | 11.0 | 0.00 | 0.00 | 0.00 | 73 | 1014.6 |
| 20260507121059 | 83 | 97 | 7.0 | 11.0 | 0.00 | 0.00 | 0.00 | 72 | 1014.5 |
| 20260507121001 | 83 | 101 | 9.0 | 11.0 | 0.00 | 0.00 | 0.00 | 72 | 1014.8 |
| 20260507120558 | 83 | 100 | 3.0 | 11.0 | 0.00 | 0.00 | 0.00 | 73 | 1014.5 |
| 20260507120501 | 83 | 84 | 3.0 | 11.0 | 0.00 | 0.00 | 0.00 | 73 | 1014.7 |
| 20260507120100 | 82 | 136 | 3.0 | 11.0 | 0.00 | 0.00 | 0.00 | 74 | 1014.4 |
| 20260507120006 | 82 | 104 | 2.0 | 11.0 | 0.00 | 0.00 | 0.00 | 73 | 1014.7 |
| 20260507115559 | 82 | 158 | 4.0 | 10.0 | 0.00 | 0.00 | 0.00 | 74 | 1014.4 |
| 20260507115503 | 82 | 110 | 6.0 | 11.0 | 0.00 | 0.00 | 0.00 | 74 | 1014.6 |
| 20260507115100 | 82 | 123 | 6.0 | 11.0 | 0.00 | 0.00 | 0.00 | 74 | 1014.4 |
| 20260507115001 | 82 | 121 | 8.0 | 11.0 | 0.00 | 0.00 | 0.00 | 74 | 1014.6 |
| 20260507114610 | 81 | 108 | 4.0 | 9.0 | 0.00 | 0.00 | 0.00 | 76 | 1014.4 |
| 20260507114059 | 81 | 211 | 3.0 | 7.0 | 0.00 | 0.00 | 0.00 | 78 | 1014.3 |
| 20260507113602 | 80 | 94 | 3.0 | 6.0 | 0.00 | 0.00 | 0.00 | 79 | 1014.3 |
| 20260507113500 | 79 | 57 | 4.0 | 6.0 | 0.00 | 0.00 | 0.00 | 79 | 1014.5 |
| 20260507113129 | 79 | 65 | 2.0 | 3.0 | 0.00 | 0.00 | 0.00 | 80 | 1014.4 |
| 20260507112559 | 78 | 28 | 1.0 | 3.0 | 0.00 | 0.00 | 0.00 | 81 | 1014.3 |
| 20260507112501 | 78 | 93 | 1.0 | 3.0 | 0.00 | 0.00 | 0.00 | 81 | 1014.6 |
| 20260507112100 | 78 | 50 | 2.0 | 3.0 | 0.00 | 0.00 | 0.00 | 81 | 1014.4 |
| 20260507112001 | 78 | 57 | 2.0 | 3.0 | 0.00 | 0.00 | 0.00 | 81 | 1014.6 |
| 20260507111601 | 78 | 55 | 0.0 | 1.0 | 0.00 | 0.00 | 0.00 | 82 | 1014.4 |
| 20260507111100 | 77 | 55 | 0.0 | 2.0 | 0.00 | 0.00 | 0.00 | 82 | 1014.4 |
| 20260507111000 | 77 | 55 | 0.0 | 2.0 | 0.00 | 0.00 | 0.00 | 82 | 1014.7 |
| 20260507110700 | 77 | 360 | 0.0 | 2.0 | 0.00 | 0.00 | 0.00 | 83 | 1014.4 |
| 20260507110502 | 76 | 360 | 0.0 | 2.0 | 0.00 | 0.00 | 0.00 | 84 | 1014.6 |
| 20260507110059 | 76 | 92 | 0.0 | 0.0 | 0.00 | 0.00 | 0.00 | 84 | 1014.5 |
| 20260507105559 | 76 | 56 | 0.0 | 2.0 | 0.00 | 0.00 | 0.00 | 84 | 1014.5 |
| 20260507105059 | 76 | 55 | 0.0 | 3.0 | 0.00 | 0.00 | 0.00 | 83 | 1014.4 |
| 20260507105000 | 76 | 55 | 0.0 | 3.0 | 0.00 | 0.00 | 0.00 | 83 | 1014.6 |
| 20260507104600 | 77 | 32 | 1.0 | 4.0 | 0.00 | 0.00 | 0.00 | 82 | 1014.3 |
| 20260507104508 | 77 | 74 | 2.0 | 4.0 | 0.00 | 0.00 | 0.00 | 82 | 1014.6 |
| 20260507104100 | 77 | 125 | 1.0 | 6.0 | 0.00 | 0.00 | 0.00 | 81 | 1014.3 |
| 20260507104000 | 77 | 125 | 1.0 | 6.0 | 0.00 | 0.00 | 0.00 | 81 | 1014.5 |
| 20260507103700 | 77 | 128 | 1.0 | 6.0 | 0.00 | 0.00 | 0.00 | 82 | 1014.3 |
| 20260507103500 | 76 | 151 | 2.0 | 5.0 | 0.00 | 0.00 | 0.00 | 82 | 1014.5 |
| 20260507103059 | 76 | 147 | 2.0 | 5.0 | 0.00 | 0.00 | 0.00 | 82 | 1014.2 |
| 20260507102559 | 76 | 136 | 2.0 | 4.0 | 0.00 | 0.00 | 0.00 | 82 | 1014.1 |
| 20260507102500 | 76 | 157 | 3.0 | 4.0 | 0.00 | 0.00 | 0.00 | 82 | 1014.4 |
| 20260507102059 | 76 | 131 | 1.0 | 3.0 | 0.00 | 0.00 | 0.00 | 83 | 1014.2 |
| 20260507102002 | 76 | 132 | 0.0 | 3.0 | 0.00 | 0.00 | 0.00 | 83 | 1014.4 |
| 20260507101559 | 75 | 99 | 1.0 | 3.0 | 0.00 | 0.00 | 0.00 | 83 | 1014.1 |
| 20260507101059 | 75 | 114 | 1.0 | 3.0 | 0.00 | 0.00 | 0.00 | 83 | 1013.9 |
| 20260507100604 | 75 | 142 | 0.0 | 3.0 | 0.00 | 0.00 | 0.00 | 84 | 1013.9 |
| 20260507100501 | 75 | 117 | 0.0 | 3.0 | 0.00 | 0.00 | 0.00 | 84 | 1014.1 |
| 20260507100121 | 75 | 118 | 1.0 | 6.0 | 0.00 | 0.00 | 0.00 | 84 | 1013.7 |
| 20260507095558 | 75 | 360 | 1.0 | 6.0 | 0.00 | 0.00 | 0.00 | 85 | 1013.6 |
| 20260507095058 | 74 | 121 | 1.0 | 3.0 | 0.00 | 0.00 | 0.00 | 85 | 1013.6 |
| 20260507095000 | 74 | 80 | 2.0 | 3.0 | 0.00 | 0.00 | 0.00 | 85 | 1013.8 |
| 20260507094659 | 74 | 78 | 1.0 | 3.0 | 0.00 | 0.00 | 0.00 | 85 | 1013.5 |
| 20260507094500 | 74 | 82 | 2.0 | 3.0 | 0.00 | 0.00 | 0.00 | 85 | 1013.8 |
| 20260507094058 | 74 | 78 | 1.0 | 3.0 | 0.00 | 0.00 | 0.00 | 85 | 1013.6 |
| 20260507093559 | 74 | 85 | 1.0 | 3.0 | 0.00 | 0.00 | 0.00 | 85 | 1013.5 |
| 20260507093459 | 74 | 135 | 1.0 | 3.0 | 0.00 | 0.00 | 0.00 | 85 | 1013.8 |
| 20260507093058 | 74 | 86 | 1.0 | 3.0 | 0.00 | 0.00 | 0.00 | 85 | 1013.6 |
| 20260507092959 | 74 | 98 | 2.0 | 3.0 | 0.00 | 0.00 | 0.00 | 85 | 1013.9 |
| 20260507092558 | 74 | 89 | 1.0 | 3.0 | 0.00 | 0.00 | 0.00 | 86 | 1013.6 |
| 20260507092058 | 73 | 67 | 1.0 | 3.0 | 0.00 | 0.00 | 0.00 | 86 | 1013.6 |
| 20260507091659 | 73 | 134 | 1.0 | 3.0 | 0.00 | 0.00 | 0.00 | 86 | 1013.6 |
| 20260507091459 | 73 | 79 | 2.0 | 3.0 | 0.00 | 0.00 | 0.00 | 86 | 1013.9 |
| 20260507091101 | 73 | 127 | 1.0 | 3.0 | 0.00 | 0.00 | 0.00 | 86 | 1013.7 |
| 20260507090559 | 73 | 83 | 1.0 | 3.0 | 0.00 | 0.00 | 0.00 | 85 | 1013.7 |
| 20260507090500 | 73 | 89 | 2.0 | 3.0 | 0.00 | 0.00 | 0.00 | 85 | 1014.0 |
| 20260507090100 | 73 | 135 | 1.0 | 3.0 | 0.00 | 0.00 | 0.00 | 86 | 1013.7 |
| 20260507085959 | 73 | 112 | 2.0 | 3.0 | 0.00 | 0.00 | 0.00 | 85 | 1014.0 |
| 20260507085559 | 73 | 105 | 1.0 | 3.0 | 0.00 | 0.00 | 0.00 | 86 | 1013.7 |
| 20260507085500 | 73 | 95 | 1.0 | 3.0 | 0.00 | 0.00 | 0.00 | 86 | 1014.0 |
| 20260507085059 | 73 | 360 | 0.0 | 3.0 | 0.00 | 0.00 | 0.00 | 86 | 1013.7 |
| 20260507085001 | 73 | 360 | 1.0 | 3.0 | 0.00 | 0.00 | 0.00 | 86 | 1014.0 |
| 20260507084610 | 73 | 360 | 1.0 | 3.0 | 0.00 | 0.00 | 0.00 | 86 | 1013.8 |
| 20260507084500 | 73 | 360 | 1.0 | 3.0 | 0.00 | 0.00 | 0.00 | 86 | 1014.0 |
| 20260507084059 | 73 | 360 | 0.0 | 3.0 | 0.00 | 0.00 | 0.00 | 85 | 1013.7 |
| 20260507083959 | 73 | 360 | 0.0 | 3.0 | 0.00 | 0.00 | 0.00 | 85 | 1014.0 |
| 20260507083559 | 73 | 360 | 1.0 | 3.0 | 0.00 | 0.00 | 0.00 | 85 | 1013.8 |
| 20260507083100 | 73 | 360 | 1.0 | 2.0 | 0.00 | 0.00 | 0.00 | 86 | 1013.9 |
| 20260507083001 | 73 | 360 | 1.0 | 2.0 | 0.00 | 0.00 | 0.00 | 86 | 1014.1 |
| 20260507082600 | 73 | 360 | 0.0 | 2.0 | 0.00 | 0.00 | 0.00 | 86 | 1013.8 |
| 20260507082501 | 73 | 360 | 0.0 | 2.0 | 0.00 | 0.00 | 0.00 | 86 | 1014.1 |
| 20260507082058 | 73 | 360 | 0.0 | 2.0 | 0.00 | 0.00 | 0.00 | 85 | 1013.9 |
| 20260507082001 | 73 | 360 | 0.0 | 0.0 | 0.00 | 0.00 | 0.00 | 86 | 1014.1 |
| 20260507081602 | 73 | 360 | 0.0 | 1.0 | 0.00 | 0.00 | 0.00 | 87 | 1013.8 |
| 20260507081505 | 73 | 360 | 0.0 | 1.0 | 0.00 | 0.00 | 0.00 | 86 | 1013.7 |
| 20260507081459 | 73 | 360 | 0.0 | 1.0 | 0.00 | 0.00 | 0.00 | 86 | 1014.0 |
| 20260507081059 | 73 | 117 | 0.0 | 1.0 | 0.00 | 0.00 | 0.00 | 86 | 1013.7 |
| 20260507081000 | 73 | 117 | 0.0 | 1.0 | 0.00 | 0.00 | 0.00 | 86 | 1014.0 |
| 20260507080600 | 73 | 69 | 0.0 | 0.0 | 0.00 | 0.00 | 0.00 | 86 | 1013.7 |
| 20260507080100 | 73 | 69 | 0.0 | 1.0 | 0.00 | 0.00 | 0.00 | 86 | 1013.6 |
| 20260507075559 | 73 | 68 | 0.0 | 2.0 | 0.00 | 0.00 | 0.00 | 86 | 1013.6 |
| 20260507075500 | 73 | 74 | 0.0 | 2.0 | 0.00 | 0.00 | 0.00 | 85 | 1013.9 |
| 20260507075059 | 73 | 88 | 0.0 | 3.0 | 0.00 | 0.00 | 0.00 | 85 | 1013.6 |
| 20260507074959 | 73 | 90 | 0.0 | 3.0 | 0.00 | 0.00 | 0.00 | 85 | 1013.9 |
| 20260507074603 | 74 | 80 | 1.0 | 3.0 | 0.00 | 0.00 | 0.00 | 84 | 1013.6 |
| 20260507074501 | 74 | 92 | 1.0 | 3.0 | 0.00 | 0.00 | 0.00 | 85 | 1013.9 |
| 20260507074101 | 74 | 360 | 0.0 | 4.0 | 0.00 | 0.00 | 0.00 | 83 | 1013.6 |
| 20260507074000 | 74 | 50 | 1.0 | 4.0 | 0.00 | 0.00 | 0.00 | 83 | 1013.9 |
| 20260507073602 | 75 | 94 | 1.0 | 4.0 | 0.00 | 0.00 | 0.00 | 82 | 1013.7 |
| 20260507073501 | 75 | 125 | 1.0 | 4.0 | 0.00 | 0.00 | 0.00 | 82 | 1013.9 |
| 20260507073103 | 75 | 101 | 1.0 | 3.0 | 0.00 | 0.00 | 0.00 | 82 | 1013.7 |
| 20260507072559 | 75 | 128 | 0.0 | 3.0 | 0.00 | 0.00 | 0.00 | 82 | 1013.7 |
| 20260507072059 | 75 | 126 | 0.0 | 4.0 | 0.00 | 0.00 | 0.00 | 82 | 1013.9 |
| 20260507072000 | 75 | 125 | 1.0 | 4.0 | 0.00 | 0.00 | 0.00 | 82 | 1014.1 |
| 20260507071559 | 75 | 134 | 1.0 | 3.0 | 0.00 | 0.00 | 0.00 | 82 | 1013.9 |
| 20260507071502 | 75 | 129 | 3.0 | 3.0 | 0.00 | 0.00 | 0.00 | 82 | 1014.1 |
| 20260507071059 | 74 | 149 | 0.0 | 4.0 | 0.00 | 0.00 | 0.00 | 83 | 1013.9 |
| 20260507071001 | 74 | 130 | 0.0 | 4.0 | 0.00 | 0.00 | 0.00 | 83 | 1014.1 |
| 20260507070603 | 74 | 117 | 1.0 | 4.0 | 0.00 | 0.00 | 0.00 | 84 | 1014.1 |
| 20260507070106 | 74 | 110 | 2.0 | 5.0 | 0.00 | 0.00 | 0.00 | 84 | 1014.0 |
| 20260507070009 | 74 | 73 | 2.0 | 5.0 | 0.00 | 0.00 | 0.00 | 84 | 1014.0 |
| 20260507065603 | 74 | 122 | 2.0 | 5.0 | 0.00 | 0.00 | 0.00 | 85 | 1014.0 |
| 20260507065500 | 74 | 133 | 2.0 | 3.0 | 0.00 | 0.00 | 0.00 | 85 | 1014.3 |
| 20260507065059 | 73 | 105 | 0.0 | 2.0 | 0.00 | 0.00 | 0.00 | 85 | 1014.1 |
| 20260507065000 | 73 | 101 | 1.0 | 2.0 | 0.00 | 0.00 | 0.00 | 85 | 1014.4 |
| 20260507064559 | 74 | 98 | 1.0 | 2.0 | 0.00 | 0.00 | 0.00 | 85 | 1014.2 |
| 20260507064059 | 74 | 61 | 1.0 | 3.0 | 0.00 | 0.00 | 0.00 | 85 | 1014.3 |
| 20260507064001 | 74 | 62 | 1.0 | 3.0 | 0.00 | 0.00 | 0.00 | 85 | 1014.5 |
| 20260507063601 | 74 | 66 | 1.0 | 3.0 | 0.00 | 0.00 | 0.00 | 85 | 1014.3 |
| 20260507063500 | 74 | 40 | 2.0 | 4.0 | 0.00 | 0.00 | 0.00 | 85 | 1014.6 |
| 20260507063059 | 74 | 72 | 1.0 | 4.0 | 0.00 | 0.00 | 0.00 | 84 | 1014.4 |
| 20260507063000 | 74 | 360 | 2.0 | 4.0 | 0.00 | 0.00 | 0.00 | 84 | 1014.6 |
| 20260507062559 | 74 | 130 | 2.0 | 3.0 | 0.00 | 0.00 | 0.00 | 84 | 1014.4 |
| 20260507062459 | 74 | 97 | 1.0 | 3.0 | 0.00 | 0.00 | 0.00 | 84 | 1014.7 |
| 20260507062100 | 74 | 84 | 1.0 | 3.0 | 0.00 | 0.00 | 0.00 | 84 | 1014.4 |
| 20260507061600 | 74 | 69 | 1.0 | 3.0 | 0.00 | 0.00 | 0.00 | 85 | 1014.5 |
| 20260507061502 | 74 | 101 | 3.0 | 3.0 | 0.00 | 0.00 | 0.00 | 85 | 1014.7 |
| 20260507061059 | 74 | 142 | 1.0 | 3.0 | 0.00 | 0.00 | 0.00 | 85 | 1014.6 |
| 20260507061001 | 74 | 141 | 1.0 | 3.0 | 0.00 | 0.00 | 0.00 | 85 | 1014.8 |
| 20260507060604 | 74 | 52 | 0.0 | 3.0 | 0.00 | 0.00 | 0.00 | 86 | 1014.7 |
| 20260507060500 | 74 | 360 | 0.0 | 3.0 | 0.00 | 0.00 | 0.00 | 86 | 1014.9 |
| 20260507060004 | 74 | 36 | 1.0 | 2.0 | 0.00 | 0.00 | 0.00 | 86 | 1015.0 |
| 20260507060002 | 74 | 36 | 1.0 | 2.0 | 0.00 | 0.00 | 0.00 | 86 | 1014.7 |
| 20260507055600 | 74 | 40 | 1.0 | 3.0 | 0.00 | 0.00 | 0.00 | 86 | 1014.8 |
| 20260507055501 | 74 | 39 | 1.0 | 3.0 | 0.00 | 0.00 | 0.00 | 86 | 1015.0 |
| 20260507055059 | 74 | 38 | 1.0 | 3.0 | 0.00 | 0.00 | 0.00 | 86 | 1014.8 |
| 20260507055000 | 74 | 49 | 2.0 | 3.0 | 0.00 | 0.00 | 0.00 | 86 | 1015.0 |
| 20260507054600 | 74 | 33 | 0.0 | 2.0 | 0.00 | 0.00 | 0.00 | 86 | 1014.9 |
| 20260507054501 | 74 | 34 | 0.0 | 2.0 | 0.00 | 0.00 | 0.00 | 86 | 1015.2 |
| 20260507054101 | 74 | 35 | 1.0 | 3.0 | 0.00 | 0.00 | 0.00 | 86 | 1014.9 |
| 20260507054010 | 74 | 34 | 1.0 | 3.0 | 0.00 | 0.00 | 0.00 | 86 | 1015.2 |
| 20260507053559 | 74 | 42 | 1.0 | 3.0 | 0.00 | 0.00 | 0.00 | 86 | 1014.9 |
| 20260507053501 | 74 | 51 | 2.0 | 2.0 | 0.00 | 0.00 | 0.00 | 87 | 1015.2 |
| 20260507053100 | 74 | 43 | 1.0 | 2.0 | 0.00 | 0.00 | 0.00 | 86 | 1015.0 |
| 20260507053001 | 74 | 77 | 1.0 | 2.0 | 0.00 | 0.00 | 0.00 | 86 | 1015.3 |
| 20260507052602 | 74 | 42 | 1.0 | 3.0 | 0.00 | 0.00 | 0.00 | 87 | 1015.1 |
| 20260507052500 | 74 | 41 | 1.0 | 3.0 | 0.00 | 0.00 | 0.00 | 86 | 1015.4 |
| 20260507052058 | 74 | 34 | 1.0 | 3.0 | 0.00 | 0.00 | 0.00 | 86 | 1015.1 |
| 20260507052000 | 74 | 34 | 1.0 | 3.0 | 0.00 | 0.00 | 0.00 | 86 | 1015.4 |
| 20260507051559 | 74 | 69 | 0.0 | 2.0 | 0.00 | 0.00 | 0.00 | 86 | 1015.2 |
| 20260507051459 | 74 | 69 | 0.0 | 2.0 | 0.00 | 0.00 | 0.00 | 86 | 1015.5 |
| 20260507051058 | 75 | 37 | 1.0 | 4.0 | 0.00 | 0.00 | 0.00 | 86 | 1015.2 |
| 20260507051001 | 75 | 42 | 1.0 | 4.0 | 0.00 | 0.00 | 0.00 | 86 | 1015.5 |
| 20260507050603 | 75 | 100 | 1.0 | 6.0 | 0.00 | 0.00 | 0.00 | 86 | 1015.3 |
| 20260507050501 | 75 | 100 | 0.0 | 6.0 | 0.00 | 0.00 | 0.00 | 86 | 1015.6 |
| 20260507050058 | 75 | 117 | 2.0 | 6.0 | 0.00 | 0.00 | 0.00 | 87 | 1015.3 |
| 20260507050000 | 75 | 101 | 2.0 | 6.0 | 0.00 | 0.00 | 0.00 | 87 | 1015.6 |
| 20260507045601 | 74 | 134 | 1.0 | 3.0 | 0.00 | 0.00 | 0.00 | 87 | 1015.4 |
| 20260507045459 | 74 | 114 | 1.0 | 2.0 | 0.00 | 0.00 | 0.00 | 88 | 1015.7 |
| 20260507045059 | 74 | 70 | 1.0 | 2.0 | 0.00 | 0.00 | 0.00 | 88 | 1015.5 |
| 20260507045000 | 74 | 69 | 1.0 | 3.0 | 0.00 | 0.00 | 0.00 | 88 | 1015.8 |
| 20260507044613 | 74 | 55 | 0.0 | 3.0 | 0.00 | 0.00 | 0.00 | 88 | 1015.5 |
| 20260507044500 | 74 | 55 | 1.0 | 3.0 | 0.00 | 0.00 | 0.00 | 88 | 1015.8 |
| 20260507044058 | 75 | 34 | 1.0 | 3.0 | 0.00 | 0.00 | 0.00 | 87 | 1015.6 |
| 20260507044000 | 75 | 38 | 1.0 | 3.0 | 0.00 | 0.00 | 0.00 | 87 | 1015.8 |
| 20260507043559 | 75 | 32 | 1.0 | 3.0 | 0.00 | 0.00 | 0.00 | 87 | 1015.6 |
| 20260507043501 | 75 | 42 | 2.0 | 3.0 | 0.00 | 0.00 | 0.00 | 87 | 1015.9 |
| 20260507043114 | 75 | 44 | 1.0 | 3.0 | 0.00 | 0.00 | 0.00 | 87 | 1015.7 |
| 20260507043001 | 75 | 42 | 2.0 | 3.0 | 0.00 | 0.00 | 0.00 | 87 | 1016.0 |
| 20260507042559 | 75 | 51 | 1.0 | 2.0 | 0.00 | 0.00 | 0.00 | 87 | 1015.8 |
| 20260507042500 | 75 | 56 | 2.0 | 2.0 | 0.00 | 0.00 | 0.00 | 87 | 1016.0 |
| 20260507042059 | 75 | 40 | 1.0 | 3.0 | 0.00 | 0.00 | 0.00 | 87 | 1015.8 |
| 20260507042000 | 75 | 69 | 1.0 | 3.0 | 0.00 | 0.00 | 0.00 | 86 | 1016.0 |
| 20260507041604 | 76 | 73 | 1.0 | 3.0 | 0.00 | 0.00 | 0.00 | 86 | 1015.8 |
| 20260507041500 | 76 | 74 | 2.0 | 3.0 | 0.00 | 0.00 | 0.00 | 86 | 1016.1 |
| 20260507041059 | 76 | 74 | 1.0 | 3.0 | 0.00 | 0.00 | 0.00 | 86 | 1016.0 |
| 20260507041000 | 76 | 71 | 1.0 | 3.0 | 0.00 | 0.00 | 0.00 | 87 | 1016.2 |
| 20260507040559 | 76 | 75 | 1.0 | 3.0 | 0.00 | 0.00 | 0.00 | 86 | 1016.0 |
| 20260507040001 | 76 | 82 | 1.0 | 2.0 | 0.00 | 0.00 | 0.00 | 86 | 1016.1 |
| 20260507035503 | 76 | 111 | 2.0 | 2.0 | 0.00 | 0.00 | 0.00 | 86 | 1016.4 |
| 20260507035501 | 76 | 111 | 0.0 | 2.0 | 0.00 | 0.00 | 0.00 | 86 | 1016.1 |
| 20260507035003 | 76 | 134 | 0.0 | 2.0 | 0.00 | 0.00 | 0.00 | 87 | 1016.1 |
| 20260507034501 | 76 | 67 | 0.0 | 2.0 | 0.00 | 0.00 | 0.00 | 87 | 1016.2 |
| 20260507034003 | 76 | 41 | 2.0 | 2.0 | 0.00 | 0.00 | 0.00 | 87 | 1016.4 |
| 20260507033501 | 76 | 54 | 0.0 | 2.0 | 0.00 | 0.00 | 0.00 | 87 | 1016.2 |
| 20260507033006 | 76 | 38 | 1.0 | 2.0 | 0.00 | 0.00 | 0.00 | 87 | 1016.5 |
| 20260507033001 | 76 | 38 | 0.0 | 2.0 | 0.00 | 0.00 | 0.00 | 87 | 1016.3 |
| 20260507032503 | 76 | 39 | 2.0 | 2.0 | 0.00 | 0.00 | 0.00 | 87 | 1016.5 |
| 20260507032501 | 76 | 39 | 1.0 | 2.0 | 0.00 | 0.00 | 0.00 | 87 | 1016.3 |
| 20260507032005 | 76 | 70 | 1.0 | 2.0 | 0.00 | 0.00 | 0.00 | 87 | 1016.6 |
| 20260507032002 | 76 | 70 | 1.0 | 2.0 | 0.00 | 0.00 | 0.00 | 87 | 1016.3 |
| 20260507031505 | 76 | 86 | 1.0 | 3.0 | 0.00 | 0.00 | 0.00 | 87 | 1016.6 |
| 20260507031501 | 76 | 86 | 1.0 | 3.0 | 0.00 | 0.00 | 0.00 | 87 | 1016.3 |
| 20260507031004 | 76 | 61 | 3.0 | 3.0 | 0.00 | 0.00 | 0.00 | 87 | 1016.7 |
| 20260507031002 | 76 | 61 | 1.0 | 3.0 | 0.00 | 0.00 | 0.00 | 87 | 1016.5 |
| 20260507030504 | 76 | 46 | 1.0 | 3.0 | 0.00 | 0.00 | 0.00 | 87 | 1016.7 |
| 20260507030010 | 77 | 80 | 2.0 | 3.0 | 0.00 | 0.00 | 0.00 | 87 | 1016.7 |
| 20260507030001 | 77 | 80 | 1.0 | 3.0 | 0.00 | 0.00 | 0.00 | 87 | 1016.4 |
| 20260507025501 | 77 | 80 | 1.0 | 4.0 | 0.00 | 0.00 | 0.00 | 87 | 1016.4 |
| 20260507025002 | 77 | 100 | 2.0 | 4.0 | 0.00 | 0.00 | 0.00 | 87 | 1016.6 |
| 20260507024510 | 77 | 95 | 2.0 | 3.0 | 0.00 | 0.00 | 0.00 | 86 | 1016.6 |
| 20260507024501 | 77 | 95 | 2.0 | 3.0 | 0.00 | 0.00 | 0.00 | 86 | 1016.4 |
| 20260507024001 | 77 | 70 | 1.0 | 3.0 | 0.00 | 0.00 | 0.00 | 86 | 1016.4 |
| 20260507023503 | 78 | 76 | 1.0 | 3.0 | 0.00 | 0.00 | 0.00 | 86 | 1016.5 |
| 20260507023111 | 78 | 80 | 0.0 | 3.0 | 0.00 | 0.00 | 0.00 | 86 | 1016.3 |
| 20260507022501 | 78 | 58 | 0.0 | 2.0 | 0.00 | 0.00 | 0.00 | 86 | 1016.3 |
| 20260507022004 | 78 | 55 | 1.0 | 2.0 | 0.00 | 0.00 | 0.00 | 86 | 1016.5 |
| 20260507021501 | 78 | 103 | 1.0 | 2.0 | 0.00 | 0.00 | 0.00 | 85 | 1016.2 |
| 20260507021005 | 78 | 109 | 1.0 | 3.0 | 0.00 | 0.00 | 0.00 | 85 | 1016.1 |
| 20260507020502 | 78 | 107 | 2.0 | 3.0 | 0.00 | 0.00 | 0.00 | 84 | 1016.3 |
| 20260507020002 | 79 | 104 | 0.0 | 2.0 | 0.00 | 0.00 | 0.00 | 84 | 1016.2 |
| 20260507015502 | 79 | 107 | 0.0 | 2.0 | 0.00 | 0.00 | 0.00 | 84 | 1016.1 |
| 20260507015005 | 79 | 360 | 0.0 | 2.0 | 0.00 | 0.00 | 0.00 | 84 | 1016.0 |
| 20260507015003 | 79 | 360 | 0.0 | 2.0 | 0.00 | 0.00 | 0.00 | 84 | 1016.2 |
| 20260507014602 | 79 | 360 | 1.0 | 2.0 | 0.00 | 0.00 | 0.00 | 83 | 1016.0 |
| 20260507014004 | 80 | 110 | 1.0 | 3.0 | 0.00 | 0.00 | 0.00 | 82 | 1016.1 |
| 20260507014001 | 80 | 110 | 0.0 | 3.0 | 0.00 | 0.00 | 0.00 | 82 | 1015.8 |
| 20260507013503 | 80 | 360 | 0.0 | 6.0 | 0.00 | 0.00 | 0.00 | 82 | 1016.1 |
| 20260507013500 | 80 | 360 | 1.0 | 6.0 | 0.00 | 0.00 | 0.00 | 82 | 1015.8 |
| 20260507013102 | 80 | 360 | 2.0 | 6.0 | 0.00 | 0.00 | 0.00 | 82 | 1015.8 |
| 20260507012502 | 80 | 92 | 0.0 | 2.0 | 0.00 | 0.00 | 0.00 | 82 | 1016.0 |
| 20260507012003 | 80 | 92 | 1.0 | 3.0 | 0.00 | 0.00 | 0.00 | 82 | 1015.7 |
| 20260507011602 | 80 | 360 | 1.0 | 3.0 | 0.00 | 0.00 | 0.00 | 82 | 1015.7 |
| 20260507011001 | 81 | 53 | 1.0 | 3.0 | 0.00 | 0.00 | 0.00 | 80 | 1015.6 |
| 20260507010501 | 81 | 146 | 1.0 | 3.0 | 0.00 | 0.00 | 0.00 | 79 | 1015.5 |
| 20260507010010 | 81 | 159 | 2.0 | 2.0 | 0.00 | 0.00 | 0.00 | 80 | 1015.9 |
| 20260507010001 | 81 | 159 | 1.0 | 2.0 | 0.00 | 0.00 | 0.00 | 80 | 1015.6 |
| 20260507005502 | 81 | 360 | 1.0 | 2.0 | 0.00 | 0.00 | 0.00 | 80 | 1015.6 |
| 20260507005001 | 81 | 163 | 1.0 | 2.0 | 0.00 | 0.00 | 0.00 | 79 | 1015.6 |
| 20260507004607 | 82 | 160 | 0.0 | 2.0 | 0.00 | 0.00 | 0.00 | 78 | 1015.5 |
| 20260507004002 | 82 | 162 | 0.0 | 3.0 | 0.00 | 0.00 | 0.00 | 79 | 1015.5 |
| 20260507003503 | 81 | 101 | 1.0 | 3.0 | 0.00 | 0.00 | 0.00 | 79 | 1015.7 |
| 20260507003001 | 81 | 57 | 0.0 | 2.0 | 0.00 | 0.00 | 0.00 | 79 | 1015.4 |
| 20260507002501 | 81 | 51 | 0.0 | 3.0 | 0.00 | 0.00 | 0.00 | 79 | 1015.4 |
| 20260507002003 | 81 | 50 | 1.0 | 3.0 | 0.00 | 0.00 | 0.00 | 79 | 1015.4 |
| 20260507001616 | 81 | 360 | 2.0 | 3.0 | 0.00 | 0.00 | 0.00 | 78 | 1015.3 |
| 20260507001003 | 82 | 360 | 1.0 | 3.0 | 0.00 | 0.00 | 0.00 | 78 | 1015.5 |
| 20260507000503 | 82 | 360 | 1.0 | 4.0 | 0.00 | 0.00 | 0.00 | 78 | 1015.5 |
| 20260507000501 | 82 | 360 | 1.0 | 4.0 | 0.00 | 0.00 | 0.00 | 78 | 1015.3 |
| 20260507000104 | 81 | 360 | 1.0 | 4.0 | 0.00 | 0.00 | 0.00 | 78 | 1015.3 |
| 20260506235501 | 82 | 360 | 1.0 | 4.0 | 0.00 | 0.00 | 0.00 | 78 | 1015.1 |
| 20260506235002 | 82 | 360 | 2.0 | 5.0 | 0.00 | 0.00 | 0.00 | 77 | 1015.3 |
| 20260506234603 | 82 | 360 | 1.0 | 5.0 | 0.00 | 0.00 | 0.00 | 76 | 1015.0 |
| 20260506234100 | 83 | 360 | 2.0 | 5.0 | 0.00 | 0.00 | 0.00 | 75 | 1015.0 |
| 20260506234002 | 83 | 360 | 3.0 | 4.0 | 0.00 | 0.00 | 0.00 | 75 | 1015.2 |
| 20260506233604 | 83 | 360 | 1.0 | 4.0 | 0.00 | 0.00 | 0.00 | 74 | 1014.8 |
| 20260506233502 | 83 | 360 | 1.0 | 4.0 | 0.00 | 0.00 | 0.00 | 73 | 1015.1 |
| 20260506233102 | 83 | 360 | 2.0 | 5.0 | 0.00 | 0.00 | 0.00 | 73 | 1014.8 |
| 20260506232601 | 83 | 184 | 3.0 | 8.0 | 0.00 | 0.00 | 0.00 | 73 | 1014.8 |
| 20260506232501 | 83 | 360 | 4.0 | 8.0 | 0.00 | 0.00 | 0.00 | 73 | 1015.0 |
| 20260506232001 | 83 | 179 | 2.0 | 8.0 | 0.00 | 0.00 | 0.00 | 73 | 1014.9 |
| 20260506231608 | 84 | 360 | 3.0 | 6.0 | 0.00 | 0.00 | 0.00 | 72 | 1014.6 |
| 20260506231101 | 84 | 360 | 3.0 | 8.0 | 0.00 | 0.00 | 0.00 | 72 | 1014.5 |
| 20260506231001 | 84 | 360 | 3.0 | 8.0 | 0.00 | 0.00 | 0.00 | 72 | 1014.7 |
| 20260506230602 | 84 | 360 | 4.0 | 8.0 | 0.00 | 0.00 | 0.00 | 72 | 1014.5 |
| 20260506230503 | 84 | 140 | 7.0 | 8.0 | 0.00 | 0.00 | 0.00 | 72 | 1014.7 |
| 20260506230010 | 84 | 155 | 2.0 | 9.0 | 0.00 | 0.00 | 0.00 | 72 | 1014.6 |
| 20260506230001 | 84 | 155 | 3.0 | 9.0 | 0.00 | 0.00 | 0.00 | 72 | 1014.3 |
| 20260506225503 | 84 | 112 | 4.0 | 10.0 | 0.00 | 0.00 | 0.00 | 72 | 1014.5 |
| 20260506225501 | 84 | 112 | 3.0 | 10.0 | 0.00 | 0.00 | 0.00 | 72 | 1014.3 |
| 20260506225002 | 84 | 165 | 5.0 | 10.0 | 0.00 | 0.00 | 0.00 | 71 | 1014.5 |
| 20260506224604 | 84 | 124 | 3.0 | 9.0 | 0.00 | 0.00 | 0.00 | 71 | 1014.2 |
| 20260506224002 | 85 | 130 | 7.0 | 10.0 | 0.00 | 0.00 | 0.00 | 70 | 1014.4 |
| 20260506224000 | 85 | 130 | 4.0 | 10.0 | 0.00 | 0.00 | 0.00 | 70 | 1014.2 |
| 20260506223502 | 85 | 123 | 7.0 | 11.0 | 0.00 | 0.00 | 0.00 | 69 | 1014.3 |
| 20260506223001 | 85 | 113 | 6.0 | 11.0 | 0.00 | 0.00 | 0.00 | 69 | 1014.0 |
| 20260506222503 | 85 | 360 | 3.0 | 9.0 | 0.00 | 0.00 | 0.00 | 69 | 1013.9 |
| 20260506222003 | 86 | 360 | 4.0 | 9.0 | 0.00 | 0.00 | 0.00 | 68 | 1014.1 |
| 20260506221501 | 86 | 360 | 4.0 | 13.0 | 0.00 | 0.00 | 0.00 | 67 | 1013.9 |
| 20260506221002 | 86 | 108 | 6.0 | 13.0 | 0.00 | 0.00 | 0.00 | 67 | 1013.8 |
| 20260506220501 | 86 | 150 | 7.0 | 14.0 | 0.00 | 0.00 | 0.00 | 67 | 1013.8 |
| 20260506220003 | 86 | 103 | 6.0 | 14.0 | 0.00 | 0.00 | 0.00 | 65 | 1013.8 |
| 20260506215504 | 86 | 129 | 7.0 | 14.0 | 0.00 | 0.00 | 0.00 | 65 | 1013.7 |
| 20260506215001 | 87 | 79 | 4.0 | 13.0 | 0.00 | 0.00 | 0.00 | 65 | 1013.7 |
| 20260506214603 | 87 | 84 | 6.0 | 13.0 | 0.00 | 0.00 | 0.00 | 65 | 1013.6 |
| 20260506214004 | 87 | 117 | 4.0 | 16.0 | 0.00 | 0.00 | 0.00 | 65 | 1013.8 |
| 20260506214002 | 87 | 117 | 5.0 | 16.0 | 0.00 | 0.00 | 0.00 | 65 | 1013.5 |
| 20260506213503 | 87 | 123 | 8.0 | 16.0 | 0.00 | 0.00 | 0.00 | 64 | 1013.6 |
| 20260506213106 | 87 | 184 | 6.0 | 12.0 | 0.00 | 0.00 | 0.00 | 64 | 1013.6 |
| 20260506212503 | 88 | 136 | 8.0 | 12.0 | 0.00 | 0.00 | 0.00 | 60 | 1013.7 |
| 20260506212501 | 88 | 136 | 8.0 | 12.0 | 0.00 | 0.00 | 0.00 | 60 | 1013.5 |
| 20260506212003 | 88 | 120 | 6.0 | 13.0 | 0.00 | 0.00 | 0.00 | 59 | 1013.5 |
| 20260506211502 | 89 | 101 | 6.0 | 13.0 | 0.00 | 0.00 | 0.00 | 59 | 1013.4 |
| 20260506211101 | 89 | 131 | 4.0 | 12.0 | 0.00 | 0.00 | 0.00 | 60 | 1013.3 |
| 20260506211001 | 88 | 92 | 2.0 | 12.0 | 0.00 | 0.00 | 0.00 | 60 | 1013.6 |
| 20260506210600 | 89 | 125 | 5.0 | 12.0 | 0.00 | 0.00 | 0.00 | 59 | 1013.4 |
| 20260506210502 | 89 | 107 | 10.0 | 12.0 | 0.00 | 0.00 | 0.00 | 60 | 1013.7 |
| 20260506210007 | 88 | 209 | 3.0 | 18.0 | 0.00 | 0.00 | 0.00 | 61 | 1013.7 |
| 20260506205503 | 88 | 126 | 7.0 | 18.0 | 0.00 | 0.00 | 0.00 | 60 | 1013.6 |
| 20260506205003 | 88 | 133 | 7.0 | 15.0 | 0.00 | 0.00 | 0.00 | 60 | 1013.6 |
| 20260506204505 | 89 | 162 | 7.0 | 15.0 | 0.00 | 0.00 | 0.00 | 59 | 1013.5 |
| 20260506204501 | 89 | 162 | 6.0 | 15.0 | 0.00 | 0.00 | 0.00 | 59 | 1013.2 |
| 20260506204003 | 89 | 134 | 5.0 | 13.0 | 0.00 | 0.00 | 0.00 | 59 | 1013.5 |
| 20260506203502 | 89 | 123 | 6.0 | 17.0 | 0.00 | 0.00 | 0.00 | 58 | 1013.2 |
| 20260506203001 | 89 | 86 | 8.0 | 17.0 | 0.00 | 0.00 | 0.00 | 58 | 1013.2 |
| 20260506202502 | 89 | 161 | 11.0 | 16.0 | 0.00 | 0.00 | 0.00 | 58 | 1013.5 |
| 20260506202003 | 89 | 128 | 8.0 | 13.0 | 0.00 | 0.00 | 0.00 | 59 | 1013.4 |
| 20260506201509 | 89 | 109 | 8.0 | 15.0 | 0.00 | 0.00 | 0.00 | 58 | 1013.5 |
| 20260506201501 | 89 | 109 | 8.0 | 15.0 | 0.00 | 0.00 | 0.00 | 58 | 1013.2 |
| 20260506201102 | 90 | 157 | 8.0 | 15.0 | 0.00 | 0.00 | 0.00 | 58 | 1013.2 |
| 20260506201001 | 90 | 133 | 10.0 | 15.0 | 0.00 | 0.00 | 0.00 | 56 | 1013.4 |
| 20260506200502 | 90 | 109 | 6.0 | 15.0 | 0.00 | 0.00 | 0.00 | 56 | 1013.4 |
| 20260506195504 | 90 | 137 | 8.0 | 17.0 | 0.00 | 0.00 | 0.00 | 57 | 1013.6 |
| 20260506195002 | 90 | 112 | 8.0 | 16.0 | 0.00 | 0.00 | 0.00 | 56 | 1013.4 |
| 20260506194505 | 91 | 151 | 9.0 | 16.0 | 0.00 | 0.00 | 0.00 | 54 | 1013.5 |
| 20260506194004 | 91 | 128 | 11.0 | 15.0 | 0.00 | 0.00 | 0.00 | 54 | 1013.7 |
| 20260506194002 | 91 | 128 | 6.0 | 15.0 | 0.00 | 0.00 | 0.00 | 54 | 1013.5 |
| 20260506193500 | 91 | 122 | 7.0 | 15.0 | 0.00 | 0.00 | 0.00 | 54 | 1013.4 |
| 20260506193010 | 91 | 164 | 5.0 | 14.0 | 0.00 | 0.00 | 0.00 | 53 | 1013.7 |
| 20260506193001 | 91 | 164 | 5.0 | 14.0 | 0.00 | 0.00 | 0.00 | 53 | 1013.4 |
| 20260506192502 | 91 | 139 | 6.0 | 13.0 | 0.00 | 0.00 | 0.00 | 52 | 1013.5 |
| 20260506192003 | 91 | 166 | 4.0 | 16.0 | 0.00 | 0.00 | 0.00 | 51 | 1013.8 |
| 20260506191502 | 91 | 173 | 7.0 | 16.0 | 0.00 | 0.00 | 0.00 | 51 | 1013.6 |
| 20260506191002 | 92 | 110 | 8.0 | 14.0 | 0.00 | 0.00 | 0.00 | 49 | 1014.0 |
| 20260506191000 | 92 | 110 | 7.0 | 14.0 | 0.00 | 0.00 | 0.00 | 49 | 1013.7 |
| 20260506190502 | 91 | 109 | 8.0 | 13.0 | 0.00 | 0.00 | 0.00 | 51 | 1013.7 |
| 20260506190006 | 91 | 121 | 7.0 | 15.0 | 0.00 | 0.00 | 0.00 | 51 | 1014.0 |
| 20260506185502 | 92 | 136 | 11.0 | 15.0 | 0.00 | 0.00 | 0.00 | 51 | 1014.0 |
| 20260506185500 | 92 | 136 | 6.0 | 15.0 | 0.00 | 0.00 | 0.00 | 51 | 1013.8 |
| 20260506185001 | 92 | 142 | 6.0 | 13.0 | 0.00 | 0.00 | 0.00 | 51 | 1013.7 |
| 20260506184603 | 91 | 94 | 6.0 | 14.0 | 0.00 | 0.00 | 0.00 | 51 | 1013.8 |
| 20260506184002 | 91 | 85 | 8.0 | 14.0 | 0.00 | 0.00 | 0.00 | 51 | 1014.2 |
| 20260506183502 | 91 | 85 | 5.0 | 13.0 | 0.00 | 0.00 | 0.00 | 49 | 1014.2 |
| 20260506183500 | 91 | 85 | 8.0 | 13.0 | 0.00 | 0.00 | 0.00 | 49 | 1014.0 |
| 20260506183002 | 91 | 217 | 2.0 | 12.0 | 0.00 | 0.00 | 0.00 | 52 | 1013.9 |
| 20260506182503 | 91 | 150 | 2.0 | 12.0 | 0.00 | 0.00 | 0.00 | 51 | 1014.3 |
| 20260506182003 | 91 | 116 | 9.0 | 13.0 | 0.00 | 0.00 | 0.00 | 51 | 1014.2 |
| 20260506181501 | 91 | 100 | 7.0 | 11.0 | 0.00 | 0.00 | 0.00 | 53 | 1014.1 |
| 20260506181004 | 91 | 111 | 4.0 | 12.0 | 0.00 | 0.00 | 0.00 | 52 | 1014.4 |
| 20260506181002 | 91 | 111 | 5.0 | 12.0 | 0.00 | 0.00 | 0.00 | 52 | 1014.1 |
| 20260506180502 | 91 | 112 | 9.0 | 15.0 | 0.00 | 0.00 | 0.00 | 50 | 1014.7 |
| 20260506180007 | 91 | 119 | 7.0 | 15.0 | 0.00 | 0.00 | 0.00 | 51 | 1014.6 |
| 20260506180005 | 91 | 119 | 6.0 | 15.0 | 0.00 | 0.00 | 0.00 | 51 | 1014.4 |
| 20260506175503 | 92 | 126 | 7.0 | 13.0 | 0.00 | 0.00 | 0.00 | 55 | 1014.7 |
| 20260506175501 | 92 | 126 | 5.0 | 13.0 | 0.00 | 0.00 | 0.00 | 55 | 1014.5 |
| 20260506175000 | 91 | 149 | 8.0 | 15.0 | 0.00 | 0.00 | 0.00 | 54 | 1014.5 |
| 20260506174509 | 91 | 115 | 3.0 | 15.0 | 0.00 | 0.00 | 0.00 | 55 | 1014.8 |
| 20260506174502 | 91 | 115 | 6.0 | 15.0 | 0.00 | 0.00 | 0.00 | 55 | 1014.6 |
| 20260506174002 | 91 | 117 | 9.0 | 15.0 | 0.00 | 0.00 | 0.00 | 54 | 1014.9 |
| 20260506173504 | 91 | 166 | 7.0 | 15.0 | 0.00 | 0.00 | 0.00 | 54 | 1014.8 |
| 20260506173009 | 91 | 184 | 4.0 | 15.0 | 0.00 | 0.00 | 0.00 | 55 | 1015.1 |
| 20260506173003 | 91 | 184 | 6.0 | 15.0 | 0.00 | 0.00 | 0.00 | 55 | 1014.9 |
| 20260506172502 | 91 | 153 | 8.0 | 12.0 | 0.00 | 0.00 | 0.00 | 55 | 1015.2 |
| 20260506172003 | 92 | 182 | 7.0 | 14.0 | 0.00 | 0.00 | 0.00 | 55 | 1015.3 |
| 20260506171501 | 91 | 132 | 9.0 | 14.0 | 0.00 | 0.00 | 0.00 | 57 | 1015.2 |
| 20260506171004 | 91 | 109 | 7.0 | 13.0 | 0.00 | 0.00 | 0.00 | 56 | 1015.2 |
| 20260506170503 | 91 | 142 | 9.0 | 12.0 | 0.00 | 0.00 | 0.00 | 54 | 1015.5 |
| 20260506170501 | 91 | 142 | 6.0 | 12.0 | 0.00 | 0.00 | 0.00 | 54 | 1015.3 |
| 20260506170005 | 91 | 107 | 6.0 | 10.0 | 0.00 | 0.00 | 0.00 | 56 | 1015.7 |
| 20260506165600 | 91 | 178 | 5.0 | 12.0 | 0.00 | 0.00 | 0.00 | 56 | 1015.4 |
| 20260506165501 | 91 | 208 | 7.0 | 15.0 | 0.00 | 0.00 | 0.00 | 56 | 1015.7 |
| 20260506165101 | 91 | 56 | 5.0 | 15.0 | 0.00 | 0.00 | 0.00 | 56 | 1015.6 |
| 20260506165001 | 91 | 104 | 9.0 | 15.0 | 0.00 | 0.00 | 0.00 | 56 | 1015.8 |
| 20260506164626 | 92 | 138 | 5.0 | 17.0 | 0.00 | 0.00 | 0.00 | 54 | 1015.6 |
| 20260506164100 | 91 | 94 | 5.0 | 17.0 | 0.00 | 0.00 | 0.00 | 55 | 1015.6 |
| 20260506164001 | 91 | 163 | 4.0 | 17.0 | 0.00 | 0.00 | 0.00 | 55 | 1015.8 |
| 20260506163602 | 91 | 145 | 3.0 | 14.0 | 0.00 | 0.00 | 0.00 | 53 | 1015.6 |
| 20260506163111 | 91 | 86 | 5.0 | 17.0 | 0.00 | 0.00 | 0.00 | 52 | 1015.7 |
| 20260506162600 | 91 | 107 | 7.0 | 16.0 | 0.00 | 0.00 | 0.00 | 50 | 1015.8 |
| 20260506162501 | 91 | 74 | 8.0 | 16.0 | 0.00 | 0.00 | 0.00 | 51 | 1016.1 |
| 20260506162001 | 91 | 112 | 7.0 | 16.0 | 0.00 | 0.00 | 0.00 | 50 | 1016.2 |
| 20260506161601 | 91 | 130 | 7.0 | 14.0 | 0.00 | 0.00 | 0.00 | 52 | 1015.9 |
| 20260506161102 | 91 | 134 | 7.0 | 15.0 | 0.00 | 0.00 | 0.00 | 51 | 1015.8 |
| 20260506161001 | 92 | 182 | 7.0 | 15.0 | 0.00 | 0.00 | 0.00 | 50 | 1016.2 |
| 20260506160600 | 91 | 132 | 6.0 | 15.0 | 0.00 | 0.00 | 0.00 | 50 | 1015.9 |
| 20260506160502 | 91 | 92 | 11.0 | 17.0 | 0.00 | 0.00 | 0.00 | 50 | 1016.0 |
| 20260506160129 | 91 | 115 | 6.0 | 17.0 | 0.00 | 0.00 | 0.00 | 51 | 1015.8 |